Regional Weather Roundup
Issued by NWS Sterling, VA

Home | Current Version | Previous Version | Text Only | Print | Product List | Glossary Off
Versions: 1 2 3 4 5 6 7 8 9 10 11 12 13 14 15 16 17 18 19 20 21 22 23 24 25 26 27 28 29 30 31 32 33 34 35 36 37 38 39 40 41 42 43 44 45 46 47 48 49 50

000
ASUS41 KLWX 221910
RWRLWX

REGIONAL WEATHER ROUNDUP
NATIONAL WEATHER SERVICE BALTIMORE MD/WASHINGTON DC
300 PM EDT TUE JUL 22 2014

Note: "FAIR" indicates few or no clouds below 12,000 feet
with no significant weather and/or obstructions to visibility.
 TC=TEMPERATURE CELSIUS

 * =Non NWS site. Station does not report precipitation (e.g. rain,
    snow, etc.), thunder, or fog.

DCZ001-MDZ009-015-VAZ040>042-051-053>054-222000-
WASHINGTON METRO
  /KDAA//-FT BELVOIR

CITY           SKY/WX    TMP DP  RH WIND       PRES   REMARKS
WASHINGTON NAT MOSUNNY   86  68  54 S9        30.13F
DULLES         PTSUNNY   84  69  60 S9        30.13F
ANDREWS AFB    PTSUNNY   84  71  64 S7G18     30.14F
QUANTICO       MOSUNNY   83  70  64 S6        30.14F
COLLEGE PARK*  PTSUNNY   86  70  58 SE5       30.13F HX  90
LEESBURG*      PTSUNNY   86  72  62 S8        30.14F HX  92
MANASSAS*      PTSUNNY   84  72  65 SE10      30.13F
GAITHERSBURG*  PTSUNNY   82  70  65 S8        30.18S

$$

MDZ006>007-011-014-222000-
BALTIMORE METRO

CITY           SKY/WX    TMP DP  RH WIND       PRES   REMARKS
BWI AIRPORT    PTSUNNY   82  66  58 SE8       30.13F
MD SCIENCE CTR   N/A     84  65  52 MISG      30.14S
MARTIN STATE   PTSUNNY   84  72  65 SE8       30.15F
ANNAPOLIS      CLOUDY    82  66  58 S8        30.14F
FORT MEADE*    MOSUNNY   81  68  65 S5        30.16S

$$

MDZ012-015-019>023-222000-
MARYLAND EASTERN SHORE

CITY           SKY/WX    TMP DP  RH WIND       PRES   REMARKS
OCEAN CITY     SUNNY     77  69  76 VRB5      30.17F
SALISBURY      NOT AVBL
BAY BRIDGE AP*   N/A     82  63  51 S6        30.15S
CAMBRIDGE*     MOSUNNY   86  61  42 S3        30.14F
EASTON*        PTSUNNY   88  66  48 SW7       30.18  HX  90

$$

MDZ017>025-222000-
SOUTHERN MARYLAND

CITY           SKY/WX    TMP DP  RH WIND       PRES   REMARKS
PATUXENT RIVER PTSUNNY   82  68  62 SE10      30.14F
ST INIGOES     SUNNY     83  67  58 S7        30.14F
LEONARDTOWN*   SUNNY     82  63  51 E7        30.16

$$

MDZ003>005-222000-
NORTH CENTRAL MARYLAND

CITY           SKY/WX    TMP DP  RH WIND       PRES   REMARKS
FREDERICK*     PTSUNNY   88  75  66 SE5       30.15F HX  97
HAGERSTOWN APT PTSUNNY   83  68  60 S10G17    30.13F
WESTMINSTER*     N/A     81  73  78 W5        30.16S

$$

MDZ501>502-222000-
WESTERN MARYLAND

CITY           SKY/WX    TMP DP  RH WIND       PRES   REMARKS
OAKLAND*       PTSUNNY   79  64  61 SW3       30.21F
CUMBERLAND*    MOSUNNY   91  66  43 E6        30.13F HX  94

$$

VAZ025>031-222000-
SHENANDOAH VALLEY

CITY           SKY/WX    TMP DP  RH WIND       PRES   REMARKS
WINCHESTER*    PTSUNNY   82  70  65 S7        30.13F
STAUNTON*      MOSUNNY   85  66  52 S6        30.17F

$$

WVZ021-048>050-054>055-222000-
EASTERN WEST VIRGINIA PANHANDLE

CITY           SKY/WX    TMP DP  RH WIND       PRES   REMARKS
MARTINSBURG    PTSUNNY   86  68  54 S9        30.13F
PETERSBURG*    MOSUNNY   87  58  38 CALM      30.11F

$$

VAZ036>039-050-222000-
CENTRAL FOOTHILLS

CITY           SKY/WX    TMP DP  RH WIND       PRES   REMARKS
CHARLOTTESVILL CLOUDY    82  70  66 SE7       30.13F
ORANGE*        MOSUNNY   82  70  65 SE8       30.15F

$$

VAZ055>057-222000-
NORTH AND CENTRAL PIEDMONT

CITY           SKY/WX    TMP DP  RH WIND       PRES   REMARKS
FREDERICKSBRG* PTSUNNY   85  70  61 E6        30.12F
STAFFORD*      MOSUNNY   85  70  61 S5        30.17F

$$

NCZ024-NYZ072-PAZ021-071-VAZ022-071-222000-
OTHER REGIONAL OBSERVATIONS

CITY           SKY/WX    TMP DP  RH WIND       PRES   REMARKS
NEW YORK CITY  SUNNY     85  67  54 MISG      30.13F
PHILADELPHIA   MOSUNNY   86  65  49 SW10      30.13F
PITTSBURGH     MOSUNNY   86  64  47 SW5       30.10F
ROANOKE        PTSUNNY   84  66  54 SE8G16    30.17F
RICHMOND       CLOUDY    87  68  52 SE7       30.13F HX  90
RALEIGH        PTSUNNY   80  71  74 SE5       30.13F

$$

ANZ530>537-222000-
MARINE OBSERVATIONS

STATION/POSITION TIME  TEMP    WIND        PRES
                       AIR SEA DIR/SP/G
                 (UTC) (F)     (DEG/KT/KT) (MB)
THOMAS PT LIGHT  1900   79 80  180/ 10/ 10 1021.1F
BALT KEY BRIDGE  1900   96     150/ 11/ 12 1020.4S
COVE POINT       1900   77     180/ 11/ 12 1020.9F
LEWISETTA        1900   79 81  120/ 12/ 15 1020.5F
SOLOMONS ISLAND  1900      82                N/A
PINEY POINT      1900          150/ 10/ 11   N/A

$$




USA.gov is the U.S. government's official web portal to all federal, state and local government web resources and services.